Date String (YYYY-MM-DD hh:mm:ss) UTC,Instrument flags,absolute air pressure of the measurement (hPa),sample flow rate (lpm),inlet stack bypass flow (lpm),air temperature of the measurement (°C),ambient temperature measured by the external sensor (°C),aerosol sample conditioner tube jacket temperature (°C),OPC LED temperature (°C),internal box temperature (°C),relative humidity of the measurement (%),span deviation,mass concentration of particles derived from Lorenz-Mie calculation of OPC scattering (μg/m³),mass concentration of particles derived from Lorenz-Mie calculation of OPC scattering (μg/m³),mass concentration of particles derived from Lorenz-Mie calculation of OPC scattering (μg/m³)
DateTimeUTC,F1_M11,P_M11,Q1_M11,Q2_M11,T1_M11,T2_M11,T3_M11,T4_M11,T5_M11,U1_M11,ZSPAN_M11,X2_M11,X0_M11,X1_M11
2023-12-28 11:00:00,SystemResetWarning,0831.3,4.99,000.00,018.7,017.9,000.0,027.1,020.0,9.2,0000.0,0000.67,0000.92,0000.60
2023-12-28 11:01:00,SystemResetWarning,0831.3,5.00,000.00,018.7,017.9,000.0,027.1,020.0,9.1,0000.0,0000.70,0000.96,0000.61
2023-12-28 11:02:00,SystemResetWarning,0831.2,5.00,000.00,018.7,017.9,000.0,027.1,020.0,9.3,0000.0,0000.72,0001.09,0000.63
2023-12-28 11:03:00,SystemResetWarning,0831.2,5.00,000.00,018.7,017.8,000.0,027.1,020.0,9.4,0000.0,0000.73,0001.65,0000.63
2023-12-28 11:04:00,SystemResetWarning,0831.3,5.00,000.00,018.7,017.8,000.0,027.1,020.0,9.2,0000.0,0000.78,0002.10,0000.65
2023-12-28 11:05:00,SystemResetWarning,0831.3,5.01,000.00,018.7,017.8,000.0,027.1,020.0,8.8,0000.0,0000.79,0002.13,0000.66
2023-12-28 11:06:00,SystemResetWarning,0831.3,5.00,000.00,018.7,017.8,000.0,027.1,020.0,8.6,0000.0,0000.81,0002.16,0000.68
2023-12-28 11:07:00,SystemResetWarning,0831.3,4.99,000.00,018.7,017.7,000.0,027.1,020.0,8.5,0000.0,0000.83,0002.20,0000.68
2023-12-28 11:08:00,SystemResetWarning,0831.2,5.00,000.00,018.7,017.7,000.0,027.1,020.0,8.6,0000.0,0000.85,0002.21,0000.70
2023-12-28 11:09:00,SystemResetWarning,0831.2,5.00,000.00,018.7,017.7,000.0,027.1,020.0,8.6,0000.0,0000.88,0002.23,0000.72
2023-12-28 11:10:00,SystemResetWarning,0831.2,5.00,000.00,018.7,017.7,000.0,027.1,020.0,8.6,0000.0,0000.92,0002.29,0000.74
2023-12-28 11:11:00,SystemResetWarning,0831.2,5.01,000.00,018.7,017.7,000.0,027.1,020.0,8.7,0000.0,0000.94,0002.34,0000.76
2023-12-28 11:12:00,SystemResetWarning,0831.2,5.01,000.00,018.7,017.6,000.0,027.1,020.0,8.8,0000.0,0000.93,0002.30,0000.76
2023-12-28 11:13:00,SystemResetWarning,0831.2,5.00,000.00,018.7,017.6,000.0,027.1,020.0,8.8,0000.0,0000.92,0002.24,0000.76
2023-12-28 11:14:00,SystemResetWarning,0831.3,4.99,000.00,018.7,017.6,000.0,027.1,020.0,8.7,0000.0,0000.92,0002.01,0000.76
2023-12-28 11:15:00,SystemResetWarning,0831.3,4.99,000.00,018.7,017.6,000.0,027.1,020.0,8.9,0000.0,0000.90,0001.29,0000.75
2023-12-28 11:16:00,SystemResetWarning,0831.2,5.00,000.00,018.7,017.6,000.0,027.1,020.0,8.9,0000.0,0000.88,0001.27,0000.73
2023-12-28 11:17:00,SystemResetWarning,0831.3,5.01,000.00,018.7,017.5,000.0,027.1,020.0,8.7,0000.0,0000.89,0001.29,0000.74
2023-12-28 11:18:00,SystemResetWarning,0831.3,5.01,000.00,018.7,017.5,000.0,027.1,020.0,8.6,0000.0,0000.88,0001.25,0000.74
2023-12-28 11:19:00,SystemResetWarning,0831.3,5.00,000.00,018.7,017.5,000.0,027.1,020.0,8.6,0000.0,0000.88,0001.25,0000.74
2023-12-28 11:20:00,SystemResetWarning,0831.3,4.99,000.00,018.7,017.5,000.0,027.1,020.0,8.7,0000.0,0000.85,0002.32,0000.73
2023-12-28 11:21:00,SystemResetWarning,0831.3,5.00,000.00,018.6,017.5,000.0,027.1,020.0,9.0,0000.0,0000.82,0002.41,0000.71
2023-12-28 11:22:00,SystemResetWarning,0831.2,4.99,000.00,018.6,017.5,000.0,027.1,020.0,9.2,0000.0,0000.80,0002.35,0000.70
2023-12-28 11:23:00,SystemResetWarning,0831.2,5.00,000.00,018.6,017.5,000.0,027.2,020.0,9.3,0000.0,0000.78,0002.33,0000.69
2023-12-28 11:24:00,SystemResetWarning,0831.2,5.01,000.00,018.6,017.4,000.0,027.2,020.0,8.8,0000.0,0000.78,0002.33,0000.69
2023-12-28 11:25:00,SystemResetWarning,0831.2,5.00,000.00,018.6,017.4,000.0,027.2,020.0,8.7,0000.0,0000.75,0002.23,0000.67
2023-12-28 11:26:00,SystemResetWarning,0831.2,5.01,000.00,018.6,017.4,000.0,027.2,020.0,8.7,0000.0,0000.75,0002.23,0000.67
2023-12-28 11:27:00,SystemResetWarning,0831.2,5.01,000.00,018.6,017.4,000.0,027.1,020.0,8.4,0000.0,0000.76,0002.26,0000.68
2023-12-28 11:28:00,SystemResetWarning,0831.2,5.01,000.00,018.6,017.4,000.0,027.1,020.0,8.4,0000.0,0000.75,0002.25,0000.66
2023-12-28 11:29:00,SystemResetWarning,0831.2,5.00,000.00,018.7,017.6,000.0,027.1,020.3,8.4,0000.0,0000.74,0002.24,0000.65
2023-12-28 11:30:00,SystemResetWarning,0831.2,5.00,000.00,018.8,018.3,000.0,027.1,020.7,8.6,0000.0,0000.73,0002.22,0000.64
2023-12-28 11:31:00,SystemResetWarning,0831.2,5.00,000.00,018.9,018.6,000.0,027.1,020.6,8.6,0000.0,0000.73,0001.16,0000.64
2023-12-28 11:32:00,SystemResetWarning,0831.1,4.99,000.00,018.9,018.6,000.0,027.1,020.4,8.3,0000.0,0000.75,0001.00,0000.65
2023-12-28 11:33:00,SystemResetWarning,0831.1,4.99,000.00,018.9,018.5,000.0,027.1,020.2,8.4,0000.0,0000.73,0000.98,0000.64
2023-12-28 11:34:00,SystemResetWarning,0831.2,5.01,000.00,018.9,018.3,000.0,027.1,020.1,8.5,0000.0,0000.73,0000.98,0000.64
2023-12-28 11:35:00,SystemResetWarning,0831.2,5.00,000.00,018.8,018.2,000.0,027.1,020.1,8.7,0000.0,0000.72,0000.97,0000.62
2023-12-28 11:36:00,SystemResetWarning,0831.2,5.00,000.00,018.8,018.1,000.0,027.1,020.0,8.9,0000.0,0000.73,0001.00,0000.62
2023-12-28 11:37:00,SystemResetWarning,0831.2,5.00,000.00,018.8,017.9,000.0,027.1,020.0,9.1,0000.0,0000.71,0000.99,0000.61
2023-12-28 11:38:00,SystemResetWarning,0831.2,5.00,000.00,018.8,017.8,000.0,027.1,020.0,9.2,0000.0,0000.69,0001.09,0000.59
2023-12-28 11:39:00,SystemResetWarning,0831.2,5.00,000.00,018.8,017.8,000.0,027.1,020.0,9.3,0000.0,0000.67,0001.08,0000.57
2023-12-28 11:40:00,SystemResetWarning,0831.3,5.00,000.00,018.7,017.7,000.0,027.1,020.0,9.3,0000.0,0000.67,0001.10,0000.56
2023-12-28 11:41:00,SystemResetWarning,0831.3,4.99,000.00,018.7,017.7,000.0,027.1,020.0,9.2,0000.0,0000.67,0001.11,0000.55
2023-12-28 11:42:00,SystemResetWarning,0831.3,5.00,000.00,018.7,017.6,000.0,027.1,020.0,9.2,0000.0,0000.65,0001.09,0000.53
2023-12-28 11:43:00,SystemResetWarning,0831.3,5.01,000.00,018.7,017.6,000.0,027.1,020.0,9.3,0000.0,0000.61,0001.03,0000.50
2023-12-28 11:44:00,SystemResetWarning,0831.3,5.01,000.00,018.7,017.6,000.0,027.1,020.0,9.3,0000.0,0000.60,0001.08,0000.48
2023-12-28 11:45:00,SystemResetWarning,0831.3,5.00,000.00,018.7,017.6,000.0,027.1,020.0,9.3,0000.0,0000.60,0001.74,0000.48
2023-12-28 11:46:00,SystemResetWarning,0831.3,5.00,000.00,018.7,017.6,000.0,027.1,020.0,9.3,0000.0,0000.61,0001.84,0000.47
2023-12-28 11:47:00,SystemResetWarning,0831.3,5.00,000.00,018.7,017.6,000.0,027.1,020.0,9.2,0000.0,0000.63,0001.90,0000.47
2023-12-28 11:48:00,SystemResetWarning,0831.3,5.00,000.00,018.7,017.6,000.0,027.1,020.0,9.1,0000.0,0000.65,0001.96,0000.47
2023-12-28 11:49:00,SystemResetWarning,0831.2,5.00,000.00,018.7,017.6,000.0,027.1,020.0,9.2,0000.0,0000.66,0001.81,0000.48
2023-12-28 11:50:00,SystemResetWarning,0831.2,5.00,000.00,018.7,017.6,000.0,027.1,020.0,9.3,0000.0,0000.67,0001.87,0000.49
2023-12-28 11:51:00,SystemResetWarning,0831.3,5.00,000.00,018.7,017.5,000.0,027.1,020.0,9.3,0000.0,0000.67,0001.92,0000.50
2023-12-28 11:52:00,SystemResetWarning,0831.3,5.00,000.00,018.6,017.5,000.0,027.1,020.0,9.2,0000.0,0000.68,0001.93,0000.52
2023-12-28 11:53:00,SystemResetWarning,0831.3,5.00,000.00,018.6,017.5,000.0,027.1,020.0,9.1,0000.0,0000.69,0001.94,0000.53
2023-12-28 11:54:00,SystemResetWarning,0831.3,5.00,000.00,018.6,017.5,000.0,027.1,020.0,8.9,0000.0,0000.71,0001.94,0000.55
2023-12-28 11:55:00,SystemResetWarning,0831.3,5.00,000.00,018.6,017.5,000.0,027.1,020.0,8.8,0000.0,0000.71,0001.88,0000.56
2023-12-28 11:56:00,SystemResetWarning,0831.3,5.01,000.00,018.6,017.5,000.0,027.1,020.0,8.9,0000.0,0000.71,0001.24,0000.57
2023-12-28 11:57:00,SystemResetWarning,0831.3,5.00,000.00,018.6,017.5,000.0,027.1,020.0,8.9,0000.0,0000.71,0001.15,0000.59
2023-12-28 11:58:00,SystemResetWarning,0831.3,5.00,000.00,018.6,017.5,000.0,027.1,020.0,9.0,0000.0,0000.68,0001.19,0000.59
2023-12-28 11:59:00,SystemResetWarning,0831.3,5.00,000.00,018.6,017.5,000.0,027.1,020.0,9.0,0000.0,0000.68,0001.27,0000.60
